START_TIME,STEP,MOV.,M34,t_acc.,L5,t_acc.,L18,t_acc.,L14,t_acc.
1979-07-01 12:19:07.060 ,7,0,,0,,0,,0,,0
1979-07-01 12:19:19.060 ,7,0,,0,,0,,0,,0
1979-07-01 12:19:13.660 ,6,1,0.,12.0,0.,12.0,0.,12.0,0.,12.0
1979-07-01 12:19:25.660 ,6,1,,0,,0,,0,,0
1979-07-01 12:19:37.660 ,0,0,0.,12.0,0.,12.0,0.,12.0,0.,12.0
1979-07-01 12:19:49.660 ,0,0,0.,12.0,0.,12.0,0.,12.0,0.,12.0
1979-07-01 12:20:01.660 ,0,0,,0,,0,,0,,0
1979-07-01 12:20:13.660 ,0,0,0.,12.0,0.,12.0,0.,12.0,0.,12.0
1979-07-01 12:20:25.660 ,0,0,0.,12.0,0.,12.0,0.,12.0,0.,12.0
1979-07-01 12:20:37.660 ,0,0,0.,12.0,0.,12.0,0.,12.0,0.,12.0
1979-07-01 12:20:49.660 ,4,1,0.,12.0,0.,12.0,0.,12.0,0.,12.0
1979-07-01 12:21:01.660 ,4,1,0.,12.0,0.,12.0,0.,12.0,0.,12.0
1979-07-01 12:21:13.660 ,0,1,0.,12.0,0.,12.0,0.,12.0,0.,12.0
1979-07-01 12:21:25.660 ,0,1,0.,12.0,0.,12.0,0.,12.0,0.,12.0
1979-07-01 12:21:37.660 ,3,1,0.,12.0,0.,12.0,0.,12.0,0.,12.0
1979-07-01 12:21:49.660 ,3,1,0.,12.0,0.,12.0,0.,12.0,0.,12.0
1979-07-01 12:22:01.660 ,7,1,0.,12.0,0.,12.0,0.,12.0,0.,12.0
1979-07-01 12:22:13.660 ,7,1,0.,12.0,0.,12.0,0.,12.0,0.,12.0
1979-07-01 12:22:25.660 ,4,1,0.,12.0,0.,12.0,0.,12.0,0.,12.0
1979-07-01 12:22:37.660 ,4,1,0.,12.0,0.,12.0,0.,12.0,0.,12.0
1979-07-01 12:22:49.660 ,0,1,0.,12.0,0.,12.0,0.,12.0,0.,12.0
1979-07-01 12:23:01.660 ,0,1,0.,12.0,0.,12.0,0.,12.0,0.,12.0
1979-07-01 12:23:13.660 ,3,1,0.,12.0,0.,12.0,0.,12.0,0.,12.0
1979-07-01 12:23:25.660 ,3,1,0.,12.0,0.,12.0,0.,12.0,0.,12.0
1979-07-01 12:23:37.660 ,7,1,0.,12.0,0.,12.0,0.,12.0,0.,12.0
1979-07-01 12:23:49.660 ,7,1,0.,12.0,0.,12.0,0.,12.0,0.,12.0
1979-07-01 12:24:01.660 ,4,1,0.,12.0,0.,12.0,0.,12.0,0.,12.0
1979-07-01 12:24:13.660 ,4,1,0.,12.0,0.,12.0,0.,12.0,0.,12.0
1979-07-01 12:24:25.660 ,0,1,0.,12.0,0.,12.0,0.,12.0,0.,12.0
1979-07-01 12:24:37.660 ,0,1,0.,12.0,0.,12.0,0.,12.0,0.,12.0
1979-07-01 12:24:49.660 ,3,1,0.,12.0,0.,12.0,0.,12.0,0.,12.0
1979-07-01 12:25:01.660 ,3,1,0.,12.0,0.,12.0,0.,12.0,0.,12.0
1979-07-01 12:25:13.660 ,7,1,0.,12.0,0.,12.0,0.,12.0,0.,12.0
1979-07-01 12:25:25.660 ,7,1,0.,12.0,0.,12.0,0.,12.0,0.,12.0
1979-07-01 12:25:37.660 ,4,1,0.,12.0,0.,12.0,0.,12.0,0.,12.0
1979-07-01 12:25:49.660 ,4,1,0.,12.0,0.,12.0,0.,12.0,0.,12.0
1979-07-01 12:26:01.660 ,0,1,0.,12.0,0.,12.0,0.,12.0,0.,12.0
1979-07-01 12:26:13.660 ,0,1,0.,12.0,0.,12.0,0.,12.0,0.,12.0
1979-07-01 12:26:25.660 ,3,1,0.,12.0,0.,12.0,0.,12.0,0.,12.0
1979-07-01 12:26:37.660 ,3,1,0.,12.0,0.,12.0,0.,12.0,0.,12.0
1979-07-01 12:26:49.660 ,7,1,0.,12.0,0.,12.0,0.,12.0,1.,12.0
1979-07-01 12:27:01.660 ,7,1,0.,12.0,0.,12.0,0.,12.0,0.,12.0
1979-07-01 12:27:13.660 ,4,1,0.,12.0,0.,12.0,0.,12.0,0.,12.0
1979-07-01 12:27:25.660 ,4,1,0.,12.0,0.,12.0,0.,12.0,0.,12.0
1979-07-01 12:27:37.660 ,0,1,0.,12.0,0.,12.0,0.,12.0,0.,12.0
1979-07-01 12:27:49.660 ,0,1,0.,12.0,0.,12.0,0.,12.0,0.,12.0
1979-07-01 12:28:01.660 ,3,1,0.,12.0,0.,12.0,0.,12.0,0.,12.0
1979-07-01 12:28:13.660 ,3,1,0.,12.0,0.,12.0,0.,12.0,0.,12.0
1979-07-01 12:28:25.660 ,7,1,0.,12.0,0.,12.0,0.,12.0,0.,12.0
1979-07-01 12:28:37.660 ,7,1,0.,12.0,0.,12.0,0.,12.0,0.,12.0
1979-07-01 12:28:25.660 ,7,1,0.,12.0,0.,12.0,0.,12.0,0.,12.0
1979-07-01 12:28:37.660 ,7,1,0.,12.0,0.,12.0,0.,12.0,0.,12.0
1979-07-01 12:28:49.660 ,4,1,0.,12.0,0.,12.0,0.,12.0,0.,12.0
1979-07-01 12:29:01.660 ,4,1,0.,12.0,0.,12.0,0.,12.0,0.,12.0
1979-07-01 12:29:13.660 ,0,1,0.,12.0,0.,12.0,0.,12.0,0.,12.0
1979-07-01 12:29:25.660 ,0,1,0.,12.0,0.,12.0,0.,12.0,0.,12.0
1979-07-01 12:29:37.660 ,0,0,0.,12.0,0.,12.0,0.,12.0,0.,12.0
1979-07-01 12:29:49.660 ,0,0,0.,12.0,0.,12.0,0.,12.0,0.,12.0
1979-07-01 12:30:01.660 ,0,0,0.,12.0,0.,12.0,0.,12.0,0.,12.0
1979-07-01 12:30:13.660 ,0,0,0.,12.0,0.,12.0,0.,12.0,0.,12.0
1979-07-01 12:30:25.660 ,5,1,0.,12.0,0.,12.0,0.,12.0,0.,12.0
1979-07-01 12:30:37.660 ,5,1,0.,12.0,0.,12.0,0.,12.0,0.,12.0
1979-07-01 12:30:49.660 ,5,0,0.,12.0,0.,12.0,0.,12.0,0.,12.0
1979-07-01 12:31:01.660 ,5,0,0.,12.0,0.,12.0,0.,12.0,0.,12.0
1979-07-01 12:31:13.660 ,4,1,0.,12.0,0.,12.0,0.,12.0,0.,12.0
1979-07-01 12:31:25.660 ,4,1,0.,12.0,0.,12.0,0.,12.0,0.,12.0
1979-07-01 12:31:37.660 ,4,0,0.,12.0,0.,12.0,0.,12.0,0.,12.0
1979-07-01 12:31:49.660 ,4,0,0.,12.0,0.,12.0,0.,12.0,0.,12.0
1979-07-01 12:32:01.660 ,3,1,0.,12.0,0.,12.0,0.,12.0,0.,12.0
1979-07-01 12:32:13.660 ,3,1,0.,12.0,0.,12.0,0.,12.0,0.,12.0
1979-07-01 12:32:25.660 ,3,0,0.,12.0,0.,12.0,0.,12.0,0.,12.0
1979-07-01 12:32:37.660 ,3,0,0.,12.0,0.,12.0,0.,12.0,0.,12.0
1979-07-01 12:32:49.660 ,2,1,0.,12.0,0.,12.0,0.,12.0,0.,12.0
1979-07-01 12:33:01.660 ,2,1,0.,12.0,0.,12.0,0.,12.0,0.,12.0
1979-07-01 12:33:13.660 ,2,0,0.,12.0,0.,12.0,0.,12.0,0.,12.0
1979-07-01 12:33:25.660 ,2,0,0.,12.0,0.,12.0,0.,12.0,0.,12.0
1979-07-01 12:33:37.660 ,1,1,0.,12.0,0.,12.0,0.,12.0,0.,12.0
1979-07-01 12:33:49.660 ,1,1,0.,12.0,0.,12.0,0.,12.0,0.,12.0
1979-07-01 12:34:01.660 ,1,0,0.,12.0,0.,12.0,0.,12.0,0.,12.0
1979-07-01 12:34:13.660 ,1,0,0.,12.0,0.,12.0,0.,12.0,0.,12.0
1979-07-01 12:34:25.660 ,0,1,0.,12.0,0.,12.0,0.,12.0,0.,12.0
1979-07-01 12:34:37.660 ,0,1,0.,12.0,0.,12.0,0.,12.0,0.,12.0
1979-07-01 12:34:49.660 ,0,0,0.,12.0,0.,12.0,0.,12.0,0.,12.0
1979-07-01 12:35:01.660 ,0,0,0.,12.0,0.,12.0,0.,12.0,0.,12.0
1979-07-01 12:35:13.660 ,0,1,0.,12.0,0.,12.0,0.,12.0,0.,12.0
1979-07-01 12:35:25.660 ,0,1,0.,12.0,0.,12.0,0.,12.0,0.,12.0
1979-07-01 12:35:37.660 ,0,0,0.,12.0,0.,12.0,0.,12.0,0.,12.0
1979-07-01 12:35:49.660 ,0,0,0.,12.0,0.,12.0,0.,12.0,0.,12.0
1979-07-01 12:36:01.660 ,1,1,0.,12.0,0.,12.0,0.,12.0,0.,12.0
1979-07-01 12:36:13.660 ,1,1,0.,12.0,0.,12.0,0.,12.0,0.,12.0
1979-07-01 12:36:25.660 ,1,0,0.,12.0,0.,12.0,0.,12.0,0.,12.0
1979-07-01 12:36:37.660 ,1,0,1.,12.0,0.,12.0,0.,12.0,0.,12.0
1979-07-01 12:36:49.660 ,2,1,0.,12.0,0.,12.0,0.,12.0,0.,12.0
1979-07-01 12:37:01.660 ,2,1,0.,12.0,0.,12.0,0.,12.0,0.,12.0
1979-07-01 12:37:13.660 ,2,0,0.,12.0,0.,12.0,0.,12.0,0.,12.0
1979-07-01 12:37:25.660 ,2,0,0.,12.0,0.,12.0,0.,12.0,0.,12.0
1979-07-01 12:37:37.660 ,3,1,0.,12.0,0.,12.0,0.,12.0,0.,12.0
1979-07-01 12:37:49.660 ,3,1,0.,12.0,0.,12.0,0.,12.0,0.,12.0
1979-07-01 12:38:01.660 ,3,0,0.,12.0,0.,12.0,0.,12.0,0.,12.0
1979-07-01 12:38:13.660 ,3,0,0.,12.0,0.,12.0,0.,12.0,0.,12.0
1979-07-01 12:38:25.660 ,4,1,0.,12.0,0.,12.0,0.,12.0,0.,12.0
1979-07-01 12:38:37.660 ,4,1,0.,12.0,0.,12.0,0.,12.0,0.,12.0
1979-07-01 12:38:49.660 ,4,0,0.,12.0,0.,12.0,0.,12.0,0.,12.0
1979-07-01 12:39:01.660 ,4,0,0.,12.0,0.,12.0,0.,12.0,0.,12.0
1979-07-01 12:39:13.660 ,5,1,0.,12.0,0.,12.0,0.,12.0,0.,12.0
1979-07-01 12:39:25.660 ,5,1,0.,12.0,0.,12.0,0.,12.0,0.,12.0
1979-07-01 12:39:37.660 ,5,0,0.,12.0,0.,12.0,0.,12.0,0.,12.0
1979-07-01 12:39:49.660 ,5,0,0.,12.0,0.,12.0,0.,12.0,0.,12.0
1979-07-01 12:40:01.660 ,6,1,0.,12.0,0.,12.0,0.,12.0,0.,12.0
1979-07-01 12:40:13.660 ,6,1,0.,12.0,0.,12.0,0.,12.0,0.,12.0
1979-07-01 12:40:25.660 ,6,0,0.,12.0,0.,12.0,0.,12.0,0.,12.0
1979-07-01 12:40:37.660 ,6,0,0.,12.0,0.,12.0,0.,12.0,0.,12.0
1979-07-01 12:40:49.660 ,7,1,0.,12.0,0.,12.0,0.,12.0,0.,12.0
1979-07-01 12:41:01.660 ,7,1,0.,12.0,0.,12.0,0.,12.0,0.,12.0
1979-07-01 12:41:13.660 ,7,0,0.,12.0,0.,12.0,0.,12.0,0.,12.0
1979-07-01 12:41:25.660 ,7,0,0.,12.0,0.,12.0,0.,12.0,0.,12.0
1979-07-01 12:41:37.660 ,7,1,0.,12.0,0.,12.0,0.,12.0,0.,12.0
1979-07-01 12:41:49.660 ,7,1,0.,12.0,0.,12.0,0.,12.0,0.,12.0
1979-07-01 12:42:01.660 ,7,0,0.,12.0,0.,12.0,0.,12.0,0.,12.0
1979-07-01 12:42:13.660 ,7,0,0.,12.0,0.,12.0,0.,12.0,0.,12.0
1979-07-01 12:42:25.660 ,6,1,0.,12.0,0.,12.0,0.,12.0,0.,12.0
1979-07-01 12:42:37.660 ,6,1,0.,12.0,0.,12.0,0.,12.0,0.,12.0
1979-07-01 12:42:49.660 ,6,0,0.,12.0,0.,12.0,0.,12.0,0.,12.0
1979-07-01 12:43:01.660 ,6,0,0.,12.0,0.,12.0,0.,12.0,0.,12.0
1979-07-01 12:43:13.660 ,5,1,0.,12.0,0.,12.0,0.,12.0,0.,12.0
1979-07-01 12:43:25.660 ,5,1,0.,12.0,0.,12.0,0.,12.0,0.,12.0
1979-07-01 12:43:37.660 ,5,0,0.,12.0,0.,12.0,0.,12.0,0.,12.0
1979-07-01 12:43:49.660 ,5,0,0.,12.0,0.,12.0,0.,12.0,0.,12.0
1979-07-01 12:44:01.660 ,4,1,0.,12.0,0.,12.0,0.,12.0,0.,12.0
1979-07-01 12:44:13.660 ,4,1,0.,12.0,0.,12.0,0.,12.0,0.,12.0
1979-07-01 12:44:25.660 ,4,0,0.,12.0,0.,12.0,0.,12.0,0.,12.0
1979-07-01 12:44:37.660 ,4,0,0.,12.0,0.,12.0,0.,12.0,0.,12.0
1979-07-01 12:44:49.660 ,3,1,0.,12.0,0.,12.0,0.,12.0,0.,12.0
1979-07-01 12:45:01.660 ,3,1,1.,12.0,0.,12.0,0.,12.0,0.,12.0
1979-07-01 12:45:13.660 ,3,0,0.,12.0,0.,12.0,0.,12.0,0.,12.0
1979-07-01 12:45:25.660 ,3,0,0.,12.0,0.,12.0,0.,12.0,0.,12.0
1979-07-01 12:45:37.660 ,2,1,0.,12.0,0.,12.0,0.,12.0,0.,12.0
1979-07-01 12:45:49.660 ,2,1,0.,12.0,0.,12.0,0.,12.0,0.,12.0
1979-07-01 12:46:01.660 ,2,0,0.,12.0,0.,12.0,0.,12.0,0.,12.0
1979-07-01 12:46:13.660 ,2,0,0.,12.0,0.,12.0,0.,12.0,0.,12.0
1979-07-01 12:46:25.660 ,1,1,0.,12.0,0.,12.0,0.,12.0,0.,12.0
1979-07-01 12:46:37.660 ,1,1,0.,12.0,0.,12.0,0.,12.0,0.,12.0
1979-07-01 12:46:49.660 ,1,0,0.,12.0,0.,12.0,0.,12.0,0.,12.0
1979-07-01 12:47:01.660 ,1,0,0.,12.0,0.,12.0,0.,12.0,0.,12.0
1979-07-01 12:47:13.660 ,0,1,0.,12.0,0.,12.0,0.,12.0,0.,12.0
1979-07-01 12:47:25.660 ,0,1,0.,12.0,0.,12.0,0.,12.0,0.,12.0
1979-07-01 12:47:37.660 ,0,0,0.,12.0,0.,12.0,0.,12.0,0.,12.0
1979-07-01 12:47:49.660 ,0,0,0.,12.0,0.,12.0,0.,12.0,0.,12.0
1979-07-01 12:48:01.660 ,0,1,0.,12.0,0.,12.0,0.,12.0,0.,12.0
1979-07-01 12:48:13.660 ,0,1,0.,12.0,0.,12.0,0.,12.0,0.,12.0
1979-07-01 12:48:25.660 ,0,0,0.,12.0,0.,12.0,0.,12.0,0.,12.0
1979-07-01 12:48:37.660 ,0,0,0.,12.0,0.,12.0,0.,12.0,0.,12.0
1979-07-01 12:48:49.660 ,1,1,0.,12.0,0.,12.0,0.,12.0,0.,12.0
1979-07-01 12:49:01.660 ,1,1,0.,12.0,0.,12.0,0.,12.0,0.,12.0
1979-07-01 12:49:13.660 ,1,0,0.,12.0,0.,12.0,0.,12.0,0.,12.0
1979-07-01 12:49:25.660 ,1,0,0.,12.0,0.,12.0,0.,12.0,0.,12.0
1979-07-01 12:49:37.660 ,2,1,0.,12.0,0.,12.0,0.,12.0,0.,12.0
1979-07-01 12:49:49.660 ,2,1,0.,12.0,0.,12.0,0.,12.0,0.,12.0
1979-07-01 12:50:01.660 ,2,0,0.,12.0,0.,12.0,0.,12.0,0.,12.0
1979-07-01 12:50:13.660 ,2,0,0.,12.0,0.,12.0,0.,12.0,0.,12.0
1979-07-01 12:50:25.660 ,3,1,0.,12.0,0.,12.0,0.,12.0,0.,12.0
1979-07-01 12:50:37.660 ,3,1,0.,12.0,0.,12.0,0.,12.0,0.,12.0
1979-07-01 12:50:49.660 ,3,0,0.,12.0,0.,12.0,0.,12.0,0.,12.0
1979-07-01 12:51:01.660 ,3,0,0.,12.0,0.,12.0,0.,12.0,0.,12.0
1979-07-01 12:51:13.660 ,4,1,0.,12.0,0.,12.0,0.,12.0,0.,12.0
1979-07-01 12:51:25.660 ,4,1,0.,12.0,0.,12.0,0.,12.0,0.,12.0
1979-07-01 12:51:37.660 ,4,0,0.,12.0,0.,12.0,0.,12.0,0.,12.0
1979-07-01 12:51:49.660 ,4,0,0.,12.0,0.,12.0,0.,12.0,0.,12.0
1979-07-01 12:52:01.660 ,5,1,0.,12.0,0.,12.0,0.,12.0,0.,12.0
1979-07-01 12:52:13.660 ,5,1,0.,12.0,0.,12.0,0.,12.0,0.,12.0
1979-07-01 12:52:25.660 ,5,0,0.,12.0,0.,12.0,0.,12.0,0.,12.0
1979-07-01 12:52:37.660 ,5,0,0.,12.0,0.,12.0,0.,12.0,0.,12.0
1979-07-01 12:53:37.660 ,0,0,0.,12.0,0.,12.0,0.,12.0,1.,12.0
1979-07-01 12:53:49.660 ,0,0,0.,12.0,0.,12.0,0.,12.0,0.,12.0
1979-07-01 12:54:01.660 ,0,0,0.,12.0,0.,12.0,0.,12.0,0.,12.0
1979-07-01 12:54:13.660 ,0,0,0.,12.0,0.,12.0,0.,12.0,0.,12.0
1979-07-01 12:54:25.660 ,7,1,0.,12.0,0.,12.0,0.,12.0,0.,12.0
1979-07-01 12:54:37.660 ,7,1,0.,12.0,0.,12.0,0.,12.0,0.,12.0
1979-07-01 12:54:49.660 ,7,0,0.,12.0,0.,12.0,0.,12.0,0.,12.0
1979-07-01 12:55:01.660 ,7,0,0.,12.0,0.,12.0,0.,12.0,0.,12.0
1979-07-01 12:55:13.660 ,6,1,0.,12.0,0.,12.0,0.,12.0,0.,12.0
1979-07-01 12:55:25.660 ,6,1,0.,12.0,0.,12.0,0.,12.0,0.,12.0
1979-07-01 12:55:37.660 ,6,0,0.,12.0,0.,12.0,0.,12.0,0.,12.0
1979-07-01 12:55:49.660 ,6,0,0.,12.0,0.,12.0,0.,12.0,0.,12.0
1979-07-01 12:56:01.660 ,5,1,0.,12.0,0.,12.0,0.,12.0,0.,12.0
1979-07-01 12:56:13.660 ,5,1,0.,12.0,0.,12.0,0.,12.0,0.,12.0
1979-07-01 12:56:25.660 ,5,0,0.,12.0,0.,12.0,0.,12.0,0.,12.0
1979-07-01 12:56:37.660 ,5,0,0.,12.0,0.,12.0,0.,12.0,0.,12.0
1979-07-01 12:56:49.660 ,4,1,0.,12.0,0.,12.0,0.,12.0,0.,12.0
1979-07-01 12:57:01.660 ,4,1,0.,12.0,0.,12.0,0.,12.0,0.,12.0
1979-07-01 12:57:13.660 ,4,0,0.,12.0,0.,12.0,0.,12.0,0.,12.0
1979-07-01 12:57:25.660 ,4,0,0.,12.0,0.,12.0,0.,12.0,0.,12.0
1979-07-01 12:57:37.660 ,3,1,0.,12.0,0.,12.0,0.,12.0,0.,12.0
1979-07-01 12:57:49.660 ,3,1,0.,12.0,0.,12.0,0.,12.0,0.,12.0
1979-07-01 12:58:01.660 ,3,0,0.,12.0,0.,12.0,0.,12.0,0.,12.0
1979-07-01 12:58:13.660 ,3,0,0.,12.0,0.,12.0,0.,12.0,0.,12.0
1979-07-01 12:58:25.660 ,2,1,0.,12.0,0.,12.0,0.,12.0,0.,12.0
1979-07-01 12:58:37.660 ,2,1,0.,12.0,0.,12.0,0.,12.0,0.,12.0
1979-07-01 12:58:49.660 ,2,0,0.,12.0,0.,12.0,0.,12.0,0.,12.0
1979-07-01 12:59:01.660 ,2,0,0.,12.0,0.,12.0,0.,12.0,0.,12.0
1979-07-01 12:59:13.660 ,1,1,0.,12.0,0.,12.0,0.,12.0,0.,12.0
1979-07-01 12:59:25.660 ,1,1,0.,12.0,0.,12.0,0.,12.0,0.,12.0
1979-07-01 12:59:37.660 ,1,0,0.,12.0,0.,12.0,0.,12.0,0.,12.0
1979-07-01 12:59:49.660 ,1,0,0.,12.0,0.,12.0,0.,12.0,0.,12.0
1979-07-01 13:00:01.660 ,0,1,0.,12.0,0.,12.0,0.,12.0,0.,12.0
1979-07-01 13:00:13.660 ,0,1,0.,12.0,0.,12.0,0.,12.0,0.,12.0
1979-07-01 13:00:25.660 ,0,0,0.,12.0,0.,12.0,0.,12.0,0.,12.0
1979-07-01 13:00:37.660 ,0,0,0.,12.0,0.,12.0,0.,12.0,0.,12.0
1979-07-01 13:00:49.660 ,0,1,0.,12.0,0.,12.0,0.,12.0,0.,12.0
1979-07-01 13:01:01.660 ,0,1,0.,12.0,0.,12.0,0.,12.0,0.,12.0
1979-07-01 13:01:13.660 ,0,0,0.,12.0,0.,12.0,0.,12.0,0.,12.0
1979-07-01 13:01:25.660 ,0,0,0.,12.0,0.,12.0,0.,12.0,0.,12.0
1979-07-01 13:01:37.660 ,1,1,0.,12.0,0.,12.0,0.,12.0,0.,12.0
1979-07-01 13:01:49.660 ,1,1,0.,12.0,0.,12.0,0.,12.0,0.,12.0
1979-07-01 13:02:01.660 ,1,0,0.,12.0,0.,12.0,0.,12.0,0.,12.0
1979-07-01 13:02:13.660 ,1,0,0.,12.0,0.,12.0,0.,12.0,0.,12.0
1979-07-01 13:02:25.660 ,2,1,0.,12.0,0.,12.0,0.,12.0,0.,12.0
1979-07-01 13:02:37.660 ,2,1,0.,12.0,0.,12.0,0.,12.0,0.,12.0
1979-07-01 13:02:49.660 ,2,0,0.,12.0,0.,12.0,0.,12.0,0.,12.0
1979-07-01 13:03:01.660 ,2,0,0.,12.0,0.,12.0,0.,12.0,0.,12.0
1979-07-01 13:03:13.660 ,3,1,0.,12.0,0.,12.0,0.,12.0,0.,12.0
1979-07-01 13:03:25.660 ,3,1,0.,12.0,0.,12.0,0.,12.0,0.,12.0
1979-07-01 13:03:37.660 ,3,0,0.,12.0,0.,12.0,0.,12.0,0.,12.0
1979-07-01 13:03:49.660 ,3,0,0.,12.0,0.,12.0,0.,12.0,0.,12.0
1979-07-01 13:04:01.660 ,4,1,0.,12.0,0.,12.0,0.,12.0,0.,12.0
1979-07-01 13:04:13.660 ,4,1,0.,12.0,0.,12.0,0.,12.0,0.,12.0
1979-07-01 13:04:25.660 ,4,0,0.,12.0,0.,12.0,0.,12.0,0.,12.0
1979-07-01 13:04:37.660 ,4,0,0.,12.0,0.,12.0,0.,12.0,0.,12.0
1979-07-01 13:04:49.660 ,5,1,0.,12.0,0.,12.0,0.,12.0,0.,12.0
1979-07-01 13:05:01.660 ,5,1,0.,12.0,0.,12.0,0.,12.0,0.,12.0
1979-07-01 13:05:13.660 ,5,0,1.,12.0,0.,12.0,0.,12.0,0.,12.0
1979-07-01 13:05:25.660 ,5,0,0.,12.0,0.,12.0,0.,12.0,0.,12.0
1979-07-01 13:05:37.660 ,6,1,0.,12.0,0.,12.0,0.,12.0,0.,12.0
1979-07-01 13:05:49.660 ,6,1,0.,12.0,0.,12.0,0.,12.0,0.,12.0
1979-07-01 13:06:01.660 ,6,0,0.,12.0,0.,12.0,0.,12.0,0.,12.0
1979-07-01 13:06:13.660 ,6,0,0.,12.0,0.,12.0,0.,12.0,0.,12.0
1979-07-01 13:06:25.660 ,7,0,0.,12.0,0.,12.0,0.,12.0,0.,12.0
1979-07-01 13:06:37.660 ,7,0,0.,12.0,0.,12.0,0.,12.0,0.,12.0
1979-07-01 13:06:49.660 ,7,0,0.,12.0,0.,12.0,0.,12.0,0.,12.0
1979-07-01 13:07:01.660 ,7,0,0.,12.0,0.,12.0,0.,12.0,0.,12.0
1979-07-01 13:07:13.660 ,4,1,0.,12.0,0.,12.0,0.,12.0,0.,12.0
1979-07-01 13:07:25.660 ,4,1,0.,12.0,0.,12.0,0.,12.0,0.,12.0
1979-07-01 13:07:37.660 ,0,1,0.,12.0,0.,12.0,0.,12.0,0.,12.0
1979-07-01 13:07:49.660 ,0,1,0.,12.0,0.,12.0,0.,12.0,0.,12.0
1979-07-01 13:08:01.660 ,3,1,0.,12.0,0.,12.0,0.,12.0,0.,12.0
1979-07-01 13:08:13.660 ,3,1,0.,12.0,0.,12.0,0.,12.0,0.,12.0
1979-07-01 13:08:25.660 ,7,1,0.,12.0,0.,12.0,0.,12.0,0.,12.0
1979-07-01 13:08:37.660 ,7,1,0.,12.0,0.,12.0,0.,12.0,0.,12.0
1979-07-01 13:08:49.660 ,4,1,0.,12.0,0.,12.0,0.,12.0,0.,12.0
1979-07-01 13:09:01.660 ,4,1,0.,12.0,0.,12.0,0.,12.0,0.,12.0
1979-07-01 13:09:13.660 ,0,1,0.,12.0,0.,12.0,0.,12.0,0.,12.0
1979-07-01 13:09:25.660 ,0,1,0.,12.0,0.,12.0,0.,12.0,0.,12.0
1979-07-01 13:09:37.660 ,3,1,0.,12.0,0.,12.0,0.,12.0,0.,12.0
1979-07-01 13:09:49.660 ,3,1,0.,12.0,0.,12.0,0.,12.0,0.,12.0
1979-07-01 13:10:01.660 ,7,1,0.,12.0,0.,12.0,0.,12.0,0.,12.0
1979-07-01 13:10:13.660 ,7,1,0.,12.0,0.,12.0,0.,12.0,0.,12.0
1979-07-01 13:10:25.660 ,4,1,0.,12.0,0.,12.0,0.,12.0,0.,12.0
1979-07-01 13:10:37.660 ,4,1,0.,12.0,0.,12.0,0.,12.0,0.,12.0
1979-07-01 13:10:49.660 ,0,1,0.,12.0,0.,12.0,0.,12.0,0.,12.0
1979-07-01 13:11:01.660 ,0,1,0.,12.0,0.,12.0,0.,12.0,0.,12.0
1979-07-01 13:11:13.660 ,3,1,0.,12.0,0.,12.0,0.,12.0,0.,12.0
1979-07-01 13:11:25.660 ,3,1,0.,12.0,0.,12.0,0.,12.0,0.,12.0
1979-07-01 13:11:37.660 ,7,1,0.,12.0,0.,12.0,0.,12.0,0.,12.0
1979-07-01 13:11:49.660 ,7,1,0.,12.0,0.,12.0,0.,12.0,0.,12.0
1979-07-01 13:12:01.660 ,4,1,0.,12.0,0.,12.0,0.,12.0,0.,12.0
1979-07-01 13:12:13.660 ,4,1,0.,12.0,0.,12.0,0.,12.0,0.,12.0
1979-07-01 13:12:25.660 ,0,1,0.,12.0,0.,12.0,0.,12.0,0.,12.0
1979-07-01 13:12:37.660 ,0,1,0.,12.0,0.,12.0,0.,12.0,0.,12.0
1979-07-01 13:12:49.660 ,3,1,0.,12.0,0.,12.0,0.,12.0,0.,12.0
1979-07-01 13:13:01.660 ,3,1,0.,12.0,0.,12.0,0.,12.0,1.,12.0
1979-07-01 13:13:13.660 ,7,1,0.,12.0,0.,12.0,0.,12.0,0.,12.0
1979-07-01 13:13:25.660 ,7,1,0.,12.0,0.,12.0,0.,12.0,0.,12.0
1979-07-01 13:13:37.660 ,4,1,1.,12.0,0.,12.0,0.,12.0,0.,12.0
1979-07-01 13:13:49.660 ,4,1,0.,12.0,0.,12.0,0.,12.0,0.,12.0
1979-07-01 13:14:01.660 ,0,0,0.,12.0,0.,12.0,0.,12.0,0.,12.0
1979-07-01 13:14:13.660 ,0,0,0.,12.0,0.,12.0,0.,12.0,0.,12.0
1979-07-01 13:15:28.060 ,0,0,,0,,0,,0,,0
1979-07-01 13:15:40.060 ,0,0,,0,,0,,0,,0
1979-07-01 13:15:37.660 ,0,1,0.,12.0,0.,12.0,0.,12.0,0.,12.0
1979-07-01 13:15:49.660 ,0,1,0.,12.0,0.,12.0,0.,12.0,0.,12.0
1979-07-01 13:16:01.660 ,3,1,0.,12.0,0.,12.0,0.,12.0,0.,12.0
1979-07-01 13:16:13.660 ,3,1,0.,12.0,0.,12.0,0.,12.0,0.,12.0
1979-07-01 13:16:25.660 ,7,1,0.,12.0,0.,12.0,0.,12.0,0.,12.0
1979-07-01 13:16:37.660 ,7,1,0.,12.0,0.,12.0,0.,12.0,0.,12.0
1979-07-01 13:16:49.660 ,4,1,0.,12.0,0.,12.0,0.,12.0,0.,12.0
1979-07-01 13:17:01.660 ,4,1,0.,12.0,0.,12.0,0.,12.0,0.,12.0
1979-07-01 13:17:13.660 ,0,1,0.,12.0,0.,12.0,0.,12.0,0.,12.0
1979-07-01 13:17:25.660 ,0,1,0.,12.0,0.,12.0,0.,12.0,0.,12.0
1979-07-01 13:17:37.660 ,0,0,0.,12.0,0.,12.0,0.,12.0,0.,12.0
1979-07-01 13:17:49.660 ,0,0,0.,12.0,0.,12.0,0.,12.0,0.,12.0
1979-07-01 13:18:01.660 ,0,0,0.,12.0,0.,12.0,0.,12.0,0.,12.0
1979-07-01 13:18:13.660 ,0,0,0.,12.0,0.,12.0,0.,12.0,0.,12.0
1979-07-01 13:18:25.660 ,5,1,0.,12.0,0.,12.0,0.,12.0,0.,12.0
1979-07-01 13:18:37.660 ,5,1,0.,12.0,0.,12.0,0.,12.0,0.,12.0
1979-07-01 13:18:49.660 ,5,0,0.,12.0,0.,12.0,0.,12.0,0.,12.0
1979-07-01 13:19:01.660 ,5,0,0.,12.0,0.,12.0,0.,12.0,0.,12.0
1979-07-01 13:19:13.660 ,4,1,0.,12.0,0.,12.0,0.,12.0,0.,12.0
1979-07-01 13:19:25.660 ,4,1,0.,12.0,0.,12.0,0.,12.0,0.,12.0
1979-07-01 13:19:37.660 ,4,0,1.,12.0,0.,12.0,0.,12.0,0.,12.0
1979-07-01 13:19:49.660 ,4,0,0.,12.0,0.,12.0,0.,12.0,0.,12.0
1979-07-01 13:20:01.660 ,3,1,0.,12.0,0.,12.0,0.,12.0,0.,12.0
1979-07-01 13:20:13.660 ,3,1,0.,12.0,0.,12.0,0.,12.0,0.,12.0
1979-07-01 13:20:25.660 ,3,0,0.,12.0,0.,12.0,0.,12.0,0.,12.0
1979-07-01 13:20:37.660 ,3,0,0.,12.0,0.,12.0,0.,12.0,0.,12.0
1979-07-01 13:20:49.660 ,2,1,0.,12.0,0.,12.0,0.,12.0,0.,12.0
1979-07-01 13:21:01.660 ,2,1,0.,12.0,0.,12.0,0.,12.0,0.,12.0
1979-07-01 13:21:13.660 ,2,0,0.,12.0,0.,12.0,0.,12.0,0.,12.0
1979-07-01 13:21:25.660 ,2,0,0.,12.0,0.,12.0,0.,12.0,0.,12.0
1979-07-01 13:21:37.660 ,1,1,0.,12.0,0.,12.0,0.,12.0,0.,12.0
1979-07-01 13:21:49.660 ,1,1,0.,12.0,0.,12.0,0.,12.0,0.,12.0
1979-07-01 13:22:01.660 ,1,0,0.,12.0,0.,12.0,0.,12.0,0.,12.0
1979-07-01 13:22:13.660 ,1,0,0.,12.0,0.,12.0,0.,12.0,0.,12.0
1979-07-01 13:22:25.660 ,0,1,0.,12.0,0.,12.0,0.,12.0,0.,12.0
1979-07-01 13:22:37.660 ,0,1,0.,12.0,0.,12.0,0.,12.0,0.,12.0
1979-07-01 13:22:49.660 ,0,0,0.,12.0,0.,12.0,0.,12.0,0.,12.0
1979-07-01 13:23:01.660 ,0,0,0.,12.0,0.,12.0,0.,12.0,0.,12.0
1979-07-01 13:23:13.660 ,0,1,0.,12.0,0.,12.0,0.,12.0,0.,12.0
1979-07-01 13:23:25.660 ,0,1,0.,12.0,0.,12.0,0.,12.0,0.,12.0
1979-07-01 13:23:37.660 ,0,0,0.,12.0,0.,12.0,0.,12.0,0.,12.0
1979-07-01 13:23:49.660 ,0,0,0.,12.0,0.,12.0,0.,12.0,0.,12.0
1979-07-01 13:24:01.660 ,0,0,0.,12.0,0.,12.0,0.,12.0,0.,12.0
1979-07-01 13:24:13.660 ,0,0,,0,,0,,0,,0
1979-07-01 13:24:25.660 ,0,0,,0,,0,,0,,0
1979-07-01 13:24:37.660 ,0,0,,0,,0,,0,,0
1979-07-01 13:25:37.660 ,0,0,0.,12.0,0.,12.0,0.,12.0,0.,12.0
1979-07-01 13:25:49.660 ,0,0,0.,12.0,0.,12.0,0.,12.0,0.,12.0
1979-07-01 13:26:01.660 ,0,0,0.,12.0,0.,12.0,0.,12.0,0.,12.0
1979-07-01 13:26:13.660 ,0,0,0.,12.0,0.,12.0,0.,12.0,0.,12.0
1979-07-01 13:26:25.660 ,4,1,0.,12.0,0.,12.0,0.,12.0,0.,12.0
1979-07-01 13:26:37.660 ,4,1,0.,12.0,0.,12.0,0.,12.0,0.,12.0
1979-07-01 13:26:49.660 ,4,0,1.,12.0,0.,12.0,0.,12.0,0.,12.0
1979-07-01 13:27:01.660 ,4,0,0.,12.0,0.,12.0,0.,12.0,0.,12.0
1979-07-01 13:27:13.660 ,5,1,0.,12.0,0.,12.0,0.,12.0,0.,12.0
1979-07-01 13:27:25.660 ,5,1,0.,12.0,0.,12.0,0.,12.0,0.,12.0
1979-07-01 13:27:37.660 ,5,0,0.,12.0,0.,12.0,0.,12.0,0.,12.0
1979-07-01 13:27:49.660 ,5,0,0.,12.0,0.,12.0,0.,12.0,0.,12.0
1979-07-01 13:28:01.660 ,6,1,0.,12.0,0.,12.0,0.,12.0,0.,12.0
1979-07-01 13:28:13.660 ,6,1,0.,12.0,0.,12.0,0.,12.0,0.,12.0
1979-07-01 13:28:25.660 ,6,0,1.,12.0,0.,12.0,0.,12.0,0.,12.0
1979-07-01 13:28:37.660 ,6,0,0.,12.0,0.,12.0,0.,12.0,0.,12.0
1979-07-01 13:28:49.660 ,7,1,0.,12.0,0.,12.0,0.,12.0,0.,12.0
1979-07-01 13:29:01.660 ,7,1,0.,12.0,0.,12.0,0.,12.0,0.,12.0
1979-07-01 13:29:13.660 ,7,0,0.,12.0,0.,12.0,0.,12.0,0.,12.0
1979-07-01 13:29:25.660 ,7,0,0.,12.0,0.,12.0,0.,12.0,0.,12.0
1979-07-01 13:29:37.660 ,7,1,0.,12.0,0.,12.0,0.,12.0,0.,12.0
1979-07-01 13:29:49.660 ,7,1,0.,12.0,0.,12.0,0.,12.0,0.,12.0
1979-07-01 13:30:01.660 ,7,0,0.,12.0,0.,12.0,0.,12.0,0.,12.0
1979-07-01 13:30:13.660 ,7,0,0.,12.0,0.,12.0,0.,12.0,0.,12.0
1979-07-01 13:30:25.660 ,6,1,0.,12.0,0.,12.0,0.,12.0,0.,12.0
1979-07-01 13:30:37.660 ,6,1,0.,12.0,0.,12.0,0.,12.0,0.,12.0
1979-07-01 13:30:49.660 ,6,0,0.,12.0,0.,12.0,0.,12.0,0.,12.0
1979-07-01 13:31:01.660 ,6,0,0.,12.0,0.,12.0,0.,12.0,0.,12.0
1979-07-01 13:31:13.660 ,5,1,0.,12.0,0.,12.0,0.,12.0,0.,12.0
1979-07-01 13:31:25.660 ,5,1,0.,12.0,0.,12.0,0.,12.0,0.,12.0
1979-07-01 13:31:37.660 ,5,0,0.,12.0,0.,12.0,0.,12.0,0.,12.0
1979-07-01 13:31:49.660 ,5,0,0.,12.0,0.,12.0,0.,12.0,0.,12.0
1979-07-01 13:32:01.660 ,4,1,0.,12.0,0.,12.0,0.,12.0,0.,12.0
1979-07-01 13:32:13.660 ,4,1,0.,12.0,0.,12.0,0.,12.0,0.,12.0
1979-07-01 13:32:25.660 ,4,0,0.,12.0,0.,12.0,0.,12.0,0.,12.0
1979-07-01 13:32:37.660 ,4,0,0.,12.0,0.,12.0,0.,12.0,0.,12.0
1979-07-01 13:32:49.660 ,3,1,0.,12.0,0.,12.0,0.,12.0,0.,12.0
1979-07-01 13:33:01.660 ,3,1,0.,12.0,0.,12.0,0.,12.0,0.,12.0
1979-07-01 13:33:13.660 ,3,0,0.,12.0,0.,12.0,0.,12.0,0.,12.0
1979-07-01 13:33:25.660 ,3,0,0.,12.0,0.,12.0,0.,12.0,0.,12.0
1979-07-01 13:33:37.660 ,2,1,0.,12.0,0.,12.0,0.,12.0,0.,12.0
1979-07-01 13:33:49.660 ,2,1,0.,12.0,0.,12.0,0.,12.0,0.,12.0
1979-07-01 13:34:01.660 ,2,0,0.,12.0,0.,12.0,0.,12.0,0.,12.0
1979-07-01 13:34:13.660 ,2,0,0.,12.0,0.,12.0,0.,12.0,0.,12.0
1979-07-01 13:34:25.660 ,1,1,0.,12.0,0.,12.0,0.,12.0,0.,12.0
1979-07-01 13:34:37.660 ,1,1,0.,12.0,0.,12.0,0.,12.0,0.,12.0
1979-07-01 13:34:49.660 ,1,0,0.,12.0,0.,12.0,0.,12.0,0.,12.0
1979-07-01 13:35:01.660 ,1,0,0.,12.0,0.,12.0,0.,12.0,0.,12.0
1979-07-01 13:35:13.660 ,0,1,0.,12.0,0.,12.0,0.,12.0,0.,12.0
1979-07-01 13:35:25.660 ,0,1,0.,12.0,0.,12.0,0.,12.0,0.,12.0
1979-07-01 13:35:37.660 ,0,0,0.,12.0,0.,12.0,0.,12.0,0.,12.0
1979-07-01 13:35:49.660 ,0,0,0.,12.0,0.,12.0,0.,12.0,0.,12.0
1979-07-01 13:36:01.660 ,0,1,0.,12.0,0.,12.0,0.,12.0,0.,12.0
1979-07-01 13:36:13.660 ,0,1,0.,12.0,0.,12.0,0.,12.0,0.,12.0
1979-07-01 13:36:25.660 ,0,0,0.,12.0,0.,12.0,0.,12.0,0.,12.0
1979-07-01 13:36:37.660 ,0,0,0.,12.0,0.,12.0,0.,12.0,0.,12.0
1979-07-01 13:36:49.660 ,1,1,0.,12.0,0.,12.0,0.,12.0,0.,12.0
1979-07-01 13:37:01.660 ,1,1,0.,12.0,0.,12.0,0.,12.0,0.,12.0
1979-07-01 13:37:13.660 ,1,0,0.,12.0,0.,12.0,0.,12.0,0.,12.0
1979-07-01 13:37:25.660 ,1,0,0.,12.0,0.,12.0,0.,12.0,0.,12.0
1979-07-01 13:37:37.660 ,2,1,0.,12.0,0.,12.0,0.,12.0,0.,12.0
1979-07-01 13:37:49.660 ,2,1,0.,12.0,0.,12.0,0.,12.0,0.,12.0
1979-07-01 13:38:01.660 ,2,0,0.,12.0,0.,12.0,0.,12.0,0.,12.0
1979-07-01 13:38:13.660 ,2,0,0.,12.0,0.,12.0,0.,12.0,0.,12.0